Weather Roundup
Issued by NWS

Home | Current Version | Previous Version | Graphics & Text | Print | Product List | Glossary Off
Versions: 1 2 3 4 5 6 7 8 9 10 11 12 13 14 15 16 17 18 19 20 21 22 23 24 25 26 27 28 29 30 31 32 33 34 35 36 37 38 39 40 41 42 43 44 45 46 47 48 49 50

835
NZUS93 KARX 260410
HRRWXR

CURRENT HOURLY OBSERVATIONS ACROSS
MUCH OF THE UPPER MISSISSIPPI VALLEY
NATIONAL WEATHER SERVICE LA CROSSE WI
1000 PM CST SAT FEB 25 2017


...SOUTHEAST MINNESOTA...


CITY           SKY/WX    TMP DP  RH WIND       PRES   REMARKS
ROCHESTER      CLOUDY    20  14  77 S20       29.88F WCI   4
ROCHESTER/MAYO CLOUDY    22  14  71 S10G16    29.90S WCI  11
WINONA         CLOUDY    23  14  68 CALM      29.95S
AUSTIN         CLOUDY    19  14  79 S9        29.90S WCI   9
ALBERT LEA     CLOUDY    23  16  74 S10       29.88F WCI  12
DODGE CENTER   NOT AVBL
PRESTON        CLOUDY    19  13  79 S10G16    29.91F WCI   7
OWATONNA       PTCLDY    23  14  68 S14       29.86F WCI  11
FARIBAULT      CLOUDY    23  16  74 S8        29.86F WCI  14
$$

...ELSEWHERE IN MINNESOTA...


CITY           SKY/WX    TMP DP  RH WIND       PRES   REMARKS
MINNEAPOLIS    MOCLDY    26  16  65 SW10      29.84F WCI  16
INTNL FALLS    MOCLDY    18   8  65 W10       29.67S WCI   6
DULUTH         LGT SNOW  26  23  88 SW9       29.70F FOG     WCI  17
RED WING       MOCLDY    21  12  68 S7        29.88F WCI  13
REDWOOD FALLS  CLEAR     25  17  72 S12       29.80F WCI  14
MANKATO          N/A     23  17  78 S13       29.86F WCI  11
WORTHINGTON    CLOUDY    22  17  81 S20       29.80F WCI   7
FAIRMONT       PTCLDY    21  15  78 S15       29.85F WCI   8
$$

...SOUTHWEST WISCONSIN...


CITY           SKY/WX    TMP DP  RH WIND       PRES   REMARKS
LA CROSSE      MOCLDY    23  13  65 S12       29.97R WCI  12
PRAIRIE DU CHI MOCLDY    23  15  70 S3        30.00F
BOSCOBEL       CLEAR     21  13  71 S6        30.01S WCI  13
LONE ROCK      CLEAR     20  13  74 CALM      30.01S
PLATTEVILLE    CLEAR     19  16  88 SW5       30.01S WCI  12
FORT MC COY    MOCLDY    19  13  76 CALM      29.96F
CAMP DOUGLAS   CLEAR     20  11  66 SW12      29.94S WCI   9
MAUSTON-NEW LI CLEAR     22  13  67 SW10G18   29.94F WCI  11
VIROQUA        MOCLDY    18  13  80 SW9       29.94S WCI   7
WIS DELLS      CLEAR     19  11  73 SW7       29.97S WCI   9
$$

...ELSEWHERE IN WISCONSIN...


CITY           SKY/WX    TMP DP  RH WIND       PRES   REMARKS
MILWAUKEE      PTCLDY    24  11  57 W6        29.99R WCI  17
MADISON        MOCLDY    20  14  77 SW5       29.99S WCI  13
GREEN BAY      CLEAR     20  10  65 W10       29.93R WCI   9
EAU CLAIRE     CLEAR     19  13  77 SW8       29.87S WCI   9
BLACK RVR FLS  FAIR      20  13  76 S5        29.93S WCI  13
MEDFORD        CLEAR     16   8  70 SW7       29.83S WCI   7
WAUSAU         CLEAR     18   8  65 SW9       29.86S WCI   7
WIS RAPIDS     CLEAR     17  10  74 SW7       29.92S WCI   8
MARSHFIELD     CLEAR     18  10  71 SW10      29.87R WCI   6
RICE LAKE      CLOUDY    25  18  76 S9        29.83S WCI  15
$$

...NORTHEAST IOWA...


CITY           SKY/WX    TMP DP  RH WIND       PRES   REMARKS
WATERLOO       MOCLDY    24  16  71 S7        29.98F WCI  16
DUBUQUE        CLOUDY    20  16  84 S5        30.00F WCI  13
DECORAH        CLOUDY    21  16  79 S7        29.94F WCI  13
MASON CITY     CLOUDY    18  12  77 S12       29.92F WCI   5
CHARLES CITY   CLOUDY    21  16  79 S10       29.95F WCI  10
OELWEIN        MOCLDY    23  19  86 S8        29.98F WCI  14
$$

...ELSEWHERE IN IOWA...


CITY           SKY/WX    TMP DP  RH WIND       PRES   REMARKS
DES MOINES     CLOUDY    30  20  66 S10       29.97F WCI  21
IOWA CITY      CLOUDY    26  18  71 S5        30.06S WCI  20
FORT DODGE     CLOUDY    27  18  69 S10       29.91F WCI  17
MARSHALLTOWN   PTCLDY    24  19  81 SE7       29.97F WCI  16
CEDAR RAPIDS   CLOUDY    24  18  77 S5        30.01S WCI  18
$$

...NORTHERN ILLINOIS...


CITY           SKY/WX    TMP DP  RH WIND       PRES   REMARKS
CHICAGO-OHARE  CLOUDY    26  14  60 W9        30.03R WCI  17
CHICAGO-MIDWAY CLOUDY    26  13  57 W9        30.04R WCI  17
MOLINE         CLOUDY    27  18  69 SW3       30.06S
ROCKFORD       CLOUDY    24  15  68 W5        30.06R WCI  18
PEORIA         PTCLDY    26  17  68 W3        30.09S
$$

NOTE: "FAIR" INDICATES FEW OR NO CLOUDS BELOW 12,000 FEET WITH NO
SIGNIFICANT WEATHER AND/OR OBSTRUCTIONS TO VISIBILITY. WIND
SPEEDS ARE IN MILES-PER-HOUR.




USA.gov is the U.S. government's official web portal to all federal, state and local government web resources and services.